Weather History for KRAL - June, 2013

Change the Weather History Date:

Thursday, June 20, 2013

  Actual Average Record
Temperature  
Mean Temperature 73 °F 73 °F  
Max Temperature 87 °F 86 °F 110 °F (2008)
Min Temperature 59 °F 60 °F 44 °F (1944)
Degree Days  
Heating Degree Days 0 0  
Month to date heating degree days 0 0  
Since 1 June heating degree days 0 0  
Since 1 July heating degree days 1168 1444  
Cooling Degree Days 8 8  
Month to date cooling degree days 165 126  
Year to date cooling degree days 451 303  
Since 1 June cooling degree days 165 126  
Growing Degree Days 23 (Base 50)    
Moisture  
Dew Point 51 °F    
Average Humidity 51    
Maximum Humidity 72    
Minimum Humidity 29    
Precipitation  
Precipitation 0.00 in 0.00 in 0.03 in (2003)
Month to date precipitation 0.00 0.07  
Year to date precipitation 2.21 9.16  
Since 1 July precipitation 4.12 12.37  
Snow  
Snow 0.00 in - - ()
Month to date snowfall 0.0  
Year to date snowfall 0.0  
Since 1 July snowfall 0.0  
Snow Depth 0.00 in    
Sea Level Pressure  
Sea Level Pressure 29.79 in    
Wind  
Wind Speed 3 mph (West)    
Max Wind Speed 16 mph    
Max Gust Speed 23 mph    
Visibility 10 miles    
Events      
T = Trace of Precipitation, MM = Missing Value Source: NWS Daily Summary

Daily Weather History Graph

Daily Weather History Graph

Search for Another Location

Airport or City:

Trip Planner

Search our weather history database for the weather conditions in past years. The results will help you decide how hot, cold, wet, or windy it might be!

Date:

Astronomy

Jun. 20, 2013 Rise Set
Actual Time 5:38 AM PDT 8:03 PM PDT
Civil Twilight 5:09 AM PDT 8:33 PM PDT
Nautical Twilight 4:33 AM PDT 9:09 PM PDT
Astronomical Twilight 3:54 AM PDT 9:48 PM PDT
Moon 5:15 PM PDT (6/20) 3:03 AM PDT (6/20)
Length of Visible Light 15h 23m
Length of Day
14h 25m
Waxing Gibbous, 89% of the Moon is Illuminated
Jun 20
Waxing Gibbous
Jun 23
Full
Jun 29
Last Quarter
Jul 8
New
Jul 15
First Quarter

Hourly Weather History & Observations

Time (PDT) Temp. Dew Point Humidity Pressure Visibility Wind Dir Wind Speed Gust Speed Precip Events Conditions
12:53 AM 66.0 °F 51.1 °F 59% 29.79 in 10.0 mi Calm Calm - N/A   Clear
1:53 AM 64.0 °F 51.1 °F 63% 29.78 in 10.0 mi Calm Calm - N/A   Clear
2:53 AM 63.0 °F 51.1 °F 65% 29.77 in 10.0 mi Calm Calm - N/A   Clear
3:53 AM 61.0 °F 51.1 °F 70% 29.77 in 10.0 mi Calm Calm - N/A   Clear
4:53 AM 61.0 °F 51.1 °F 70% 29.77 in 10.0 mi Calm Calm - N/A   Clear
5:53 AM 60.1 °F 50.0 °F 69% 29.79 in 10.0 mi Calm Calm - N/A   Clear
6:53 AM 62.1 °F 50.0 °F 65% 29.80 in 10.0 mi Calm Calm - N/A   Clear
7:53 AM 66.0 °F 52.0 °F 60% 29.82 in 10.0 mi Calm Calm - N/A   Clear
8:53 AM 69.1 °F 51.1 °F 53% 29.82 in 10.0 mi Calm Calm - N/A   Clear
9:53 AM 75.0 °F 51.1 °F 43% 29.81 in 10.0 mi Calm Calm - N/A   Clear
10:53 AM 77.0 °F 50.0 °F 39% 29.81 in 10.0 mi Variable 3.5 mph - N/A   Clear
11:53 AM 81.0 °F 51.1 °F 35% 29.80 in 10.0 mi Calm Calm - N/A   Clear
12:53 PM 84.0 °F 50.0 °F 31% 29.78 in 10.0 mi Variable 4.6 mph - N/A   Clear
1:53 PM 84.9 °F 48.0 °F 28% 29.77 in 10.0 mi West 8.1 mph 16.1 mph N/A   Clear
2:53 PM 86.0 °F 51.1 °F 30% 29.76 in 10.0 mi West 8.1 mph 18.4 mph N/A   Clear
3:53 PM 84.9 °F 51.1 °F 31% 29.76 in 10.0 mi WNW 12.7 mph 20.7 mph N/A   Clear
4:53 PM 84.0 °F 48.9 °F 29% 29.75 in 10.0 mi West 10.4 mph 18.4 mph N/A   Clear
5:53 PM 81.0 °F 48.0 °F 31% 29.76 in 10.0 mi West 13.8 mph 20.7 mph N/A   Clear
6:53 PM 79.0 °F 48.9 °F 35% 29.76 in 10.0 mi West 12.7 mph 20.7 mph N/A   Clear
7:53 PM 75.9 °F 53.1 °F 45% 29.78 in 10.0 mi West 6.9 mph - N/A   Clear
8:53 PM 73.0 °F 51.1 °F 46% 29.80 in 10.0 mi West 3.5 mph - N/A   Clear
9:53 PM 71.1 °F 52.0 °F 51% 29.82 in 10.0 mi WNW 3.5 mph - N/A   Clear
10:53 PM 70.0 °F 51.1 °F 51% 29.83 in 10.0 mi Calm Calm - N/A   Clear
11:53 PM 69.1 °F 48.9 °F 49% 29.82 in 10.0 mi Calm Calm - N/A   Clear